AQI (46)

Current Conditions for Foresthill, CA. Clear skies, Dry   
Visibility: 10 miles
Space WX Alerts: WATCH:  Geomagnetic Storm Category G1 Predicted ( Latest Alert ) - Issue Time: 2018 Jun 24 2030 UTC

  Summary / Temperature 

Current Temperature
70.2°F
21.2°C
(24/hr Ago)
72.4°F
(Apparent temp)
67.4°F
Comfortable
Heat Index
71.3°F 

73.3°F/ 22.9°C
 --- Virtual Temp: 73.1°F ---

 Temp Rate:

 24/hr Difference:

 Avg Running Temp:

 Todays High:

 Todays Low:

 Y-days High:

 Y-days Low:

 Todays HeatIdx:

 Y-days HeatIdx:

 Evapotranspiration:

0°F/hr 

-2.2°F

70.2°F

71.6°F 12:07am

70.0°F 4:21am

91.4°F 2:17pm

70.7°F 10:39pm

73.4°F 12:07am

89.1°F 2:24pm

0.008 in

115' Above Ground

 Temperature:

 6'AGL VRS 115'AGL:

 Avg Running Temp:

 Humidity:

 Todays High:

 Todays Low:

 Y-days High:

 Y-days Low:

72.0°F 

+1.8°F

71.7°F

50% 

74.0°F 12:00am

71.0°F 4:01am

91.0°F 1:22pm

73.0°F 9:46pm

Temp & Humidity Graphs

  Wind 

Wind Speed

 1.0 mph

Gusting to

 15.0 mph

Wind from E

98°  E

Light air

 Avg speed:

 Wind Run:

 Peak Gust:

  6.0 mph 

20.0 miles

  19.0 mph 2:32am

  Almanac  

Moon age: 12 days,6 hours,53 minutes,93%

Waxing Gibbous
93%
Illuminated
12 days in cycle

 Moonrise:

 Moonset:

 Sunrise:

 Sunset:

 Solar Noon:

6:26pm

4:02am

5:39am

8:33pm

1:06pm

0min 10s less daylight tomorrow 

  Solar Radiation 

(Current Solar)
  No Sun Light
(Todays High)
 None@12:00am

Rain

 Rain Today:

 Rain Rate (/hr):

 Rain last hour:

 Rain Yesterday:

 This Month:

 Season Total:

30 Days Since Last Rain Day

0.00 in

0.000 in

0.00 in

0.00 in

0.00 in

42.44 in

Updated Time

Updated: 6/25/18  4:47am

(Updated  sec ago)

Humidity & Barometer

 Humidity:

 Wetbulb:

 Dew Point:

 Barometer:

52% 

59.7°F 

51.7°F 

29.788 inHg 

 Baro Trend:  Steady 
Northern Calif
Preparedness
Fire 
Level 

    UV Index  

(Current UV)
0.0  None
(Todays High) @ 12:00am
0.0   None

National Weather Service Forecast

Overnight

Overnight: Clear
Clear
Monday

Monday: Sunny
Sunny
Monday
Night
Monday Night: Clear
Clear
Tuesday

Tuesday: Sunny
Sunny
Tuesday
Night
Tuesday Night: Clear
Clear
Wednesday

Wednesday: Sunny
Sunny
Lo 66 °F Hi 88 °F Lo 64 °F Hi 89 °F Lo 63 °F Hi 86 °F

Foresthill Probe 2 Stats  
Foresthill Probe 2: is located on Thomas Street
at 3000 feet. The main Foresthill Weather site
is located on Melody ln at the 2860 foot elevation

Calm
68.7°F
20.4°C
Temp Rate:
+0.1°F
Calm
Gusting to
2.0 mph
(Humidity)
58%
Wind from SE
136°  SE
Updated: 25/06/18 - 04:42:23
 Todays High: 70.6°F 00:00
 Todays Low: 68.3°F 01:39
 Rain Today: 0.00 in
 Season Total: 44.79 in

Foresthill Wx: Monthly,Yearly, Highs and Lows 

Foresthill  
This Weather Data is coming from the main Foresthill
Weather site located on Melody ln at the 2860 foot
elevation
Not Foresthill Probe 2
Weather Data
Month
  High
Month
  Low
Year
High
Year
Low
Temp 91.4°F
6/24/18
46.3°F
6/1/18
91.4°F
6/24/18
21.9°F
2/23/18
Humidity 86%
6/17/18
16%
6/21/18
100%
1/8/18
15%
2/10/18
Heat Index 89.1°F
6/24/18
48.2°F
6/1/18
89.1°F
6/24/18
27.1°F
2/20/18
Wind Chill 91.4°F
6/24/18
44.3°F
6/10/18
91.4°F
6/24/18
9.2°F
2/23/18
Wind Gust 23 mph
6/24/18
0 mph
6/1/18
43 mph
3/1/18
0 mph
1/1/18
Barometer 30.11 in
6/1/18
29.60 in
6/16/18
30.55 in
1/27/18
29.60 in
6/16/18
ET 0.25 in
6/24/18
0.00 in
6/1/18
0.25 in
6/24/18
0.00 in
1/1/18
Dew Point 59.6°F
6/23/18
27.9°F
6/10/18
59.6°F
6/23/18
7.6°F
2/11/18
Pacific Satellite US Radar Satellite Imagery Sacramento,CA.  (click to enlarge)
NWS Weather Forecast - Summary
Updated: Monday, June 25, 2018 - 1:20am PDT
Current Interstate Highway Conditions for I-80 & US-50

[I 80: IN THE SAN FRANCISCO BAY AREA - SOLANO CO]
no traffic restrictions are reported for this area.

[I 80: IN THE NORTHERN CALIFORNIA AREA & SIERRA NEVADA]
no traffic restrictions are reported for this area.

[US 50: IN THE SACRAMENTO VALLEY & THE LAKE TAHOE BASIN]
westbound traffic is reduced to 1 lane 3 mi west of riverton /at peavine ridge rd/ (EL DORADO CO) - due to a traffic collision
NWS Weather Forecast: Overnight and Monday (Updated: Mon, 25-Jun-2018 3:23am PDT)
Overnight

Overnight: Clear
Clear

Lo 66 °F
NWS forecast: Clear, with a low around 66. East southeast wind around 5 mph.
Monday

Monday: Sunny
Sunny

Hi 88 °F
NWS forecast: Sunny, with a high near 88. South wind 3 to 9 mph.
YR.NO 10 Day Weather forecast
Last update: 06/25/2018 @ 00:36
Next update: 06/25/2018 @ 13:00
Provided by: 22
      Temperature Precipitation Pressure Wind  
Today
06/25/2018
03:00 06:00 59°F   29.86 inHg Light breeze from east 4 mph
  06:00 12:00 57°F   29.89 inHg Light air from east-southeast 2 mph
  12:00 18:00 82°F   29.92 inHg Light breeze from southwest 6 mph
  18:00 00:00 82°F   29.86 inHg Light breeze from south-southwest 7 mph
    (Click to enlarge)
meteogram

    Forecast for next 9 days

      Temperature Precip Pressure Wind  
Tuesday
06/26/2018
00:00 06:00 63°F   29.88 inHg Light air from east 3 mph
  06:00 12:00 59°F   29.88 inHg Light breeze from east 4 mph
  12:00 18:00 88°F   29.89 inHg Light breeze from southwest 7 mph
  18:00 00:00 86°F   29.83 inHg Light breeze from southwest 6 mph
      Temperature Precip Pressure Wind  
Wednesday
06/27/2018
00:00 06:00 61°F   29.86 inHg Light breeze from east 4 mph
  06:00 12:00 54°F   29.85 inHg Light air from east-northeast 3 mph
  12:00 18:00 84°F   29.86 inHg Light breeze from southwest 7 mph
  17:00 23:00 82°F   29.81 inHg Light breeze from south-southwest 7 mph
  23:00 05:00 63°F   29.83 inHg Light breeze from east 4 mph
      Temperature Precip Pressure Wind  
Thursday
06/28/2018
05:00 11:00 55°F   29.81 inHg Light breeze from east 4 mph
  11:00 17:00 79°F   29.86 inHg Light breeze from west-southwest 6 mph
  17:00 23:00 82°F   29.81 inHg Light breeze from west-southwest 6 mph
  23:00 05:00 66°F   29.83 inHg Light air from east 1 mph
      Temperature Precip Pressure Wind  
Friday
06/29/2018
05:00 11:00 55°F   29.80 inHg Light breeze from east-northeast 6 mph
  11:00 17:00 84°F   29.80 inHg Gentle breeze from west 9 mph
  17:00 23:00 88°F   29.76 inHg Gentle breeze from west-northwest 9 mph
  23:00 05:00 66°F   29.77 inHg Light breeze from east-northeast 6 mph
      Temperature Precip Pressure Wind  
Saturday
06/30/2018
05:00 11:00 66°F   29.79 inHg Gentle breeze from east-northeast 9 mph
  11:00 17:00 93°F   29.78 inHg Light breeze from west-northwest 6 mph
  17:00 23:00 95°F   29.76 inHg Gentle breeze from west 9 mph
  23:00 05:00 72°F   29.83 inHg Light breeze from east 4 mph
      Temperature Precip Pressure Wind  
Sunday
07/01/2018
05:00 11:00 68°F   29.85 inHg Light breeze from east-northeast 5 mph
  11:00 17:00 88°F   29.91 inHg Light breeze from west-southwest 6 mph
  17:00 23:00 90°F   29.87 inHg Light breeze from southwest 6 mph
  23:00 05:00 68°F   29.93 inHg Light air from east 3 mph
      Temperature Precip Pressure Wind  
Monday
07/02/2018
05:00 11:00 59°F   29.93 inHg Light breeze from east-southeast 4 mph
  11:00 17:00 82°F   29.92 inHg Light breeze from southwest 6 mph
  17:00 23:00 84°F   29.85 inHg Light breeze from southwest 7 mph
  23:00 05:00 66°F   29.87 inHg Light air from east-southeast 3 mph
      Temperature Precip Pressure Wind  
Tuesday
07/03/2018
05:00 11:00 57°F   29.83 inHg Light breeze from east-northeast 4 mph
  11:00 17:00 82°F   29.86 inHg Light breeze from west-southwest 6 mph
  17:00 23:00 86°F   29.81 inHg Light breeze from southwest 6 mph
  23:00 05:00 68°F   29.86 inHg Light air from east 2 mph
      Temperature Precip Pressure Wind  
Wednesday
07/04/2018
05:00 11:00 59°F   29.86 inHg Light breeze from east 4 mph
  11:00 17:00 81°F   29.94 inHg Light breeze from southwest 6 mph
How Close Are We To this Month's Temperature Record ?
Updated Monday, Jun 25, 2018- 4:40:00 AM

Current Temperature: 70.2°F

June's High: Temperature Record 95.1°F - Set on Sat, Jun 8, 2013 - 3:58:00 PM
We are currently 24.9°F Less than this Month's record High

June's Low: Temperature Record 40.8°F - Set on Tue, Jun 5, 2012 - 5:41:00 AM
We are currently 29.4°F More than this Month's record Low

Weather History For Monday, June 25, 2018


On this Day - In Weather History ...
Data courtesy of weatherforyou.com
powered by Cumulus v1.9.3 (1059)
Ambient Weather VWS v14.00
Top Contact Website Map Copyright © 2007 - 2018 Foresthillweather.com Never base important decisions on this or any weather information obtained from the Internet